Weather in Shpalozavod

Russia / Tomsk District     58°55′55″N   81°33′20″E
temp.,
°C
wind,
m/s
gust,
m/s
humid.,
%
clouds,
%
prec.,
mm/h
press.,
hPa
HPBL,
m
28 june, tue
tue2801:00+11wsw34885 0.3 99338
04:00+9wsw6119747 0.0 993234
07:00+12wsw61088100 0.1 994790
10:00+11wsw91393100 0.3 995838
13:00+15w8126391 0.6 9981700
16:00+14wsw91271100 0.5 10001155
19:00+16wsw8116387 0.9 10011523
22:00+13sw597168 0.1 1001245
29 june, wed
wed2901:00+13ssw5971100 0.1 1001360
04:00+12s4879100 0.0 1000243
07:00+12s5985100 0.0 1000341
10:00+15sse6871100 0.0 999643
13:00+18sse5859100 0.1 9971427
16:00+14ene3590100 1.5 995198
19:00+15ese5994100 3.9 993355
22:00+14se61097100 1.6 990368
30 june, thu
thu3001:00+13s61098100 7.1 988427
04:00+10sw6129399 4.6 988524
07:00+9ssw71090100 4.6 990620
10:00+11ssw10127275 0.1 9921319
13:00+11s11137296 0.4 9931323
16:00+8s91392100 1.4 9941232
19:00+9s81495100 3.9 995899
22:00+9ssw91592100 3.3 995918
1 july, fri
fri101:00+9ssw81293100 4.6 996733
04:00+9sw71293100 0.8 996671
07:00+9ssw71193100 1.7 996591
10:00+9ssw71093100 0.4 997710
13:00+9ssw81092100 1.1 998718
16:00+9sse51295100 4.6 997743
19:00+10sw71194100 9.1 997663
22:00+9sw61195100 0.8 997602
2 july, sat
sat201:00+9sw61097100 1.6 997501
04:00+9sw5996100 0.1 998342
07:00+9sw6996100 0.4 998502
10:00+10sw6894100 0.2 998667
13:00+10sw589484 1.3 999527
16:00+14sw787742 1.6 9981106
19:00+14sw667397 2.6 997911
22:00+11ssw589219 0.8 996141